Location: Asni�res
(49.1337°N, 2.3555°E)
Time: 04:16:39
(UTC+00:00)

Cosmos 1726 - Pass Details

Date: 16 October 2021
Orbit: 479 x 493 km, 82.5° (Epoch: 29 November)

Event Time Altitude Azimuth Distance (km) Brightness Sun altitude
Rises 17:53:47 0° 207° (SSW) 2,527 6.1 -9.8°
Reaches altitude 10° 17:55:58 10° 215° (SW) 1,653 5.3 -10.2°
Maximum altitude 17:59:21 38° 285° (WNW) 755 3.7 -10.7°
Drops below altitude 10° 18:02:47 10° 355° (N) 1,670 4.8 -11.3°
Sets 18:05:00 0° 4° (N) 2,556 5.7 -11.6°
